Flag for Ukraine Weather past 2 weeks in Odesa, Ukraine

Now
63 °F

Clear.


Feels Like: 63 °F
Forecast: 63 / 77 °F
Wind: No wind

Location: Odesa Airport

Current Time: Aug 23, 2014 at 11:14:20 PM

Latest Report: Aug 23, 2014 at 10:30 PM


Visibility: 10 mi

Pressure: 30.07 "Hg

Humidity: 68%

Dew point: 52 °F

Location of OdesaLocation

Historic Weather in Odesa — Graph

°F

Odesa temperature yesterday

Maximum temperature yesterday: 77 °F (at 3:00 PM)
Minimum temperature yesterday: 61 °F (at 11:00 PM)
Average temperature yesterday: 69 °F

Past Weeks' High & Low Weather Summary

 TemperatureHumidityPressure
High93 °F (Aug 9, 1:30 PM)100% (Aug 14, 5:30 AM)30.12 "Hg (Aug 14, 5:30 AM)
Low57 °F (Aug 19, 5:00 AM)25% (Aug 18, 5:00 PM)29.71 "Hg (Aug 15, 7:00 PM)
Average76 °F60%29.93 "Hg
* Reported Aug 8 10:00 PM — Aug 23 10:00 PM, Odesa, Weather by CustomWeather, © 2014

Note: Actual official high and low records may vary slightly from our data, if they occured in-between our weather recording intervals... More about our weather records

Advertising

Odesa weather history for previous 24 hours

 ConditionsComfort  
Time TempWeatherWind HumidityBarometerVisibility
10:00 PM
Aug 23
64 °FClear.No wind68%30.07 "Hg10 mi
9:30 PM64 °FClear.No wind64%30.04 "Hg10 mi
9:00 PM66 °FClear.3 mph56%30.07 "Hg10 mi
8:30 PM66 °FSunny.No wind60%30.07 "Hg10 mi
8:00 PM68 °FSunny.3 mph53%30.07 "Hg10 mi
7:30 PM72 °FSunny.8 mph50%30.07 "Hg10 mi
7:00 PM72 °FSunny.8 mph50%30.07 "Hg10 mi
6:30 PM73 °FSunny.8 mph44%30.07 "Hg10 mi
6:00 PM73 °FPassing clouds.8 mph44%30.07 "HgN/A
5:30 PM75 °FSunny.10 mph41%30.07 "Hg10 mi
5:00 PM75 °FPassing clouds.6 mph41%30.07 "HgN/A
4:30 PM75 °FPassing clouds.6 mph41%30.07 "HgN/A
4:00 PM75 °FPassing clouds.6 mph41%30.07 "HgN/A
3:30 PM75 °FPassing clouds.6 mph41%30.07 "HgN/A
3:00 PM75 °FSunny.3 mph41%30.09 "Hg10 mi
2:30 PM73 °FPassing clouds.6 mph44%30.09 "HgN/A
2:00 PM75 °FSunny.1 mph39%30.09 "Hg10 mi
1:30 PM73 °FSunny.3 mph41%30.09 "Hg10 mi
1:00 PM72 °FSunny.6 mph44%30.12 "Hg10 mi
12:30 PM72 °FSunny.3 mph44%30.12 "Hg10 mi
12:00 PM70 °FPassing clouds.6 mph46%30.12 "HgN/A
11:30 AM70 °FPassing clouds.3 mph46%30.12 "HgN/A
11:00 AM68 °FSunny.3 mph49%30.12 "Hg10 mi
10:30 AM68 °FPassing clouds.6 mph46%30.12 "HgN/A
10:00 AM68 °FPassing clouds.8 mph49%30.12 "HgN/A
9:30 AM66 °FSunny.10 mph52%30.12 "Hg10 mi
9:00 AM64 °FSunny.10 mph56%30.12 "Hg10 mi
8:30 AM66 °FSunny.10 mph52%30.12 "Hg10 mi
8:00 AM64 °FPassing clouds.10 mph56%30.12 "HgN/A
7:30 AM63 °FSunny.6 mph73%30.12 "Hg10 mi
7:00 AM57 °FClear.3 mph82%30.09 "Hg10 mi
6:30 AM57 °FClear.6 mph77%30.09 "Hg10 mi
6:00 AM57 °FClear.3 mph82%30.09 "Hg10 mi
5:30 AM57 °FClear.6 mph77%30.09 "Hg10 mi
5:00 AM57 °FClear.3 mph82%30.09 "Hg10 mi
4:30 AM59 °FClear.3 mph77%30.09 "Hg10 mi
4:00 AM59 °FClear.6 mph77%30.09 "Hg10 mi
3:30 AM61 °FClear.6 mph72%30.09 "Hg10 mi
3:00 AM59 °FClear.6 mph72%30.09 "Hg10 mi
2:30 AM61 °FClear.6 mph72%30.09 "Hg10 mi
2:00 AM61 °FPassing clouds.6 mph77%30.09 "HgN/A
1:30 AM61 °FClear.6 mph77%30.09 "Hg10 mi
1:00 AM61 °FClear.6 mph77%30.09 "Hg10 mi
12:30 AM61 °FClear.6 mph77%30.09 "Hg10 mi
12:00 AM61 °FClear.6 mph77%30.09 "Hg10 mi
11:30 PM
Aug 22
61 °FClear.3 mph72%30.07 "Hg10 mi
11:00 PM61 °FClear.3 mph77%30.07 "Hg10 mi
Weather by CustomWeather, © 2014

See weather overviewHow to use our weather pages